• In Belarus
  • List of Countries
  • For 7 days
  • Water Temperature
  • Satellite Maps
  • Weather Map
  • Weather Widgets
  • user-avatar
    Login

    Hourly Weather Mendoza

    Today, 19 February, Monday

    Time Temperature Precipitation Wind Pressure Humidity
    00:00 +29°C° 0.2 mm 3 mps 694 mmHg 49%
    01:00 +28°C° 0.2 mm 3 mps 694 mmHg 51%
    02:00 +28°C° 1.3 mm 4 mps 694 mmHg 52%
    03:00 +27°C° 1.3 mm 4 mps 694 mmHg 53%
    04:00 +27°C° 1.3 mm 5 mps 694 mmHg 54%
    05:00 +26°C° 1.5 mm 5 mps 694 mmHg 55%
    06:00 +26°C° 1.5 mm 6 mps 695 mmHg 55%
    07:00 +24°C° 1.5 mm 6 mps 695 mmHg 56%
    08:00 +26°C° 0.1 mm 6 mps 695 mmHg 50%
    09:00 +27°C° 0.1 mm 6 mps 695 mmHg 44%
    10:00 +28°C° 0.1 mm 5 mps 695 mmHg 38%
    11:00 +29°C° 0 mm 5 mps 695 mmHg 37%
    12:00 +29°C° 0 mm 5 mps 695 mmHg 35%
    13:00 +30°C° 0 mm 5 mps 695 mmHg 34%
    14:00 +30°C° 0 mm 4 mps 694 mmHg 34%
    15:00 +32°C° 0 mm 4 mps 694 mmHg 34%
    16:00 +32°C° 0 mm 4 mps 694 mmHg 33%
    17:00 +30°C° 0 mm 3 mps 694 mmHg 35%
    18:00 +29°C° 0 mm 3 mps 694 mmHg 37%
    19:00 +28°C° 0 mm 2 mps 695 mmHg 39%
    20:00 +28°C° 0 mm 2 mps 695 mmHg 40%
    21:00 +28°C° 0 mm 2 mps 695 mmHg 41%
    22:00 +27°C° 0 mm 2 mps 696 mmHg 42%
    23:00 +27°C° 0 mm 2 mps 696 mmHg 43%

    Tomorrow, 20 February, Tuesday

    Time Temperature Precipitation Wind Pressure Humidity
    00:00 +27°C° 0 mm 2 mps 696 mmHg 43%
    01:00 +26°C° 0 mm 3 mps 696 mmHg 44%
    02:00 +25°C° 0.1 mm 3 mps 696 mmHg 46%
    03:00 +23°C° 0.1 mm 4 mps 696 mmHg 48%
    04:00 +22°C° 0.1 mm 5 mps 696 mmHg 49%
    05:00 +22°C° 0 mm 5 mps 697 mmHg 49%
    06:00 +22°C° 0 mm 5 mps 697 mmHg 49%
    07:00 +22°C° 0 mm 5 mps 698 mmHg 49%
    08:00 +23°C° 0 mm 5 mps 698 mmHg 47%
    09:00 +24°C° 0 mm 6 mps 698 mmHg 44%
    10:00 +26°C° 0 mm 6 mps 699 mmHg 42%
    11:00 +27°C° 0 mm 6 mps 699 mmHg 41%
    12:00 +28°C° 0 mm 5 mps 698 mmHg 40%
    13:00 +29°C° 0 mm 5 mps 698 mmHg 39%
    14:00 +29°C° 0 mm 5 mps 698 mmHg 38%
    15:00 +29°C° 0 mm 5 mps 698 mmHg 38%
    16:00 +29°C° 0 mm 4 mps 698 mmHg 37%
    17:00 +28°C° 0 mm 4 mps 698 mmHg 39%
    18:00 +28°C° 0 mm 3 mps 699 mmHg 40%
    19:00 +27°C° 0 mm 3 mps 699 mmHg 42%
    20:00 +26°C° 0 mm 3 mps 700 mmHg 43%
    21:00 +26°C° 0 mm 3 mps 700 mmHg 45%
    22:00 +25°C° 0 mm 2 mps 701 mmHg 47%
    23:00 +25°C° 0 mm 2 mps 700 mmHg 48%

    Day after tomorrow, 21 February, Wednesday

    Time Temperature Precipitation Wind Pressure Humidity
    00:00 +24°C° 0 mm 2 mps 700 mmHg 49%
    01:00 +24°C° 0 mm 2 mps 700 mmHg 50%
    02:00 +24°C° 0 mm 2 mps 700 mmHg 50%
    03:00 +23°C° 0 mm 2 mps 700 mmHg 51%
    04:00 +23°C° 0 mm 2 mps 699 mmHg 52%
    05:00 +24°C° 0 mm 2 mps 700 mmHg 50%
    06:00 +24°C° 0 mm 2 mps 700 mmHg 48%
    07:00 +25°C° 0 mm 2 mps 701 mmHg 46%
    08:00 +27°C° 0 mm 3 mps 701 mmHg 41%
    09:00 +28°C° 0 mm 4 mps 701 mmHg 37%
    10:00 +30°C° 0 mm 5 mps 701 mmHg 33%
    11:00 +32°C° 0 mm 6 mps 700 mmHg 31%
    12:00 +33°C° 0 mm 6 mps 699 mmHg 30%
    13:00 +34°C° 0 mm 7 mps 699 mmHg 28%
    14:00 +34°C° 0 mm 6 mps 698 mmHg 28%
    15:00 +34°C° 0 mm 6 mps 698 mmHg 28%
    16:00 +34°C° 0 mm 6 mps 697 mmHg 28%
    17:00 +33°C° 0 mm 5 mps 697 mmHg 31%
    18:00 +32°C° 0 mm 4 mps 698 mmHg 33%
    19:00 +30°C° 0 mm 3 mps 698 mmHg 35%
    20:00 +30°C° 0 mm 3 mps 698 mmHg 37%
    21:00 +29°C° 0 mm 3 mps 698 mmHg 38%
    22:00 +28°C° 0 mm 2 mps 699 mmHg 40%
    23:00 +28°C° 0 mm 2 mps 698 mmHg 41%

    22 February, Thursday

    Time Temperature Precipitation Wind Pressure Humidity
    00:00 +27°C° 0 mm 2 mps 698 mmHg 42%
    01:00 +27°C° 0 mm 2 mps 697 mmHg 43%
    02:00 +26°C° 0 mm 2 mps 697 mmHg 44%
    03:00 +26°C° 0 mm 1 mps 697 mmHg 45%
    04:00 +25°C° 0 mm 1 mps 697 mmHg 46%
    05:00 +26°C° 0 mm 1 mps 698 mmHg 43%
    06:00 +27°C° 0 mm 2 mps 698 mmHg 40%
    07:00 +27°C° 0 mm 2 mps 699 mmHg 37%
    08:00 +28°C° 0 mm 2 mps 699 mmHg 36%
    09:00 +29°C° 0 mm 3 mps 699 mmHg 34%
    10:00 +31°C° 0 mm 3 mps 699 mmHg 33%
    11:00 +31°C° 0 mm 3 mps 699 mmHg 32%
    12:00 +33°C° 0 mm 3 mps 698 mmHg 30%
    13:00 +34°C° 0 mm 3 mps 697 mmHg 29%
    14:00 +34°C° 0.1 mm 3 mps 697 mmHg 28%
    15:00 +34°C° 0.1 mm 3 mps 696 mmHg 28%
    16:00 +35°C° 0.1 mm 3 mps 696 mmHg 27%
    17:00 +34°C° 0.1 mm 3 mps 696 mmHg 29%
    18:00 +32°C° 0.1 mm 2 mps 697 mmHg 31%
    19:00 +31°C° 0.1 mm 2 mps 697 mmHg 32%
    20:00 +29°C° 0.5 mm 4 mps 698 mmHg 37%
    21:00 +28°C° 0.5 mm 6 mps 698 mmHg 42%
    22:00 +26°C° 0.5 mm 8 mps 699 mmHg 47%
    23:00 +24°C° 0.3 mm 8 mps 699 mmHg 53%

    23 February, Friday

    Time Temperature Precipitation Wind Pressure Humidity
    00:00 +22°C° 0.3 mm 7 mps 699 mmHg 60%
    01:00 +20°C° 0.3 mm 6 mps 699 mmHg 66%
    02:00 +20°C° 0 mm 5 mps 700 mmHg 67%
    03:00 +20°C° 0 mm 4 mps 700 mmHg 68%
    04:00 +19°C° 0 mm 4 mps 700 mmHg 68%
    05:00 +19°C° 0.1 mm 3 mps 700 mmHg 68%
    06:00 +19°C° 0.1 mm 3 mps 700 mmHg 68%
    07:00 +19°C° 0.1 mm 3 mps 701 mmHg 68%
    08:00 +19°C° 0 mm 3 mps 701 mmHg 65%
    09:00 +20°C° 0 mm 3 mps 701 mmHg 61%
    10:00 +21°C° 0 mm 4 mps 701 mmHg 58%
    11:00 +22°C° 0 mm 3 mps 700 mmHg 55%
    12:00 +24°C° 0 mm 3 mps 700 mmHg 52%
    13:00 +25°C° 0 mm 3 mps 700 mmHg 49%
    14:00 +25°C° 0.1 mm 3 mps 700 mmHg 47%
    15:00 +26°C° 0.1 mm 3 mps 699 mmHg 46%
    16:00 +26°C° 0.1 mm 3 mps 699 mmHg 45%
    17:00 +26°C° 0.1 mm 2 mps 700 mmHg 46%
    18:00 +25°C° 0.1 mm 2 mps 700 mmHg 48%
    19:00 +25°C° 0.1 mm 2 mps 700 mmHg 49%
    20:00 +24°C° 0 mm 2 mps 701 mmHg 51%
    21:00 +24°C° 0 mm 1 mps 701 mmHg 53%
    22:00 +23°C° 0 mm 1 mps 701 mmHg 54%
    23:00 +23°C° 0 mm 1 mps 701 mmHg 55%

    24 February, Saturday

    Time Temperature Precipitation Wind Pressure Humidity
    00:00 +23°C° 0 mm 1 mps 701 mmHg 56%
    01:00 +22°C° 0 mm 1 mps 700 mmHg 56%
    02:00 +22°C° 0 mm 1 mps 700 mmHg 57%
    03:00 +22°C° 0 mm 1 mps 700 mmHg 58%
    04:00 +21°C° 0 mm 1 mps 700 mmHg 59%
    05:00 +22°C° 0 mm 1 mps 700 mmHg 56%
    06:00 +23°C° 0 mm 1 mps 700 mmHg 53%
    07:00 +23°C° 0 mm 1 mps 700 mmHg 50%
    08:00 +25°C° 0 mm 2 mps 700 mmHg 46%
    09:00 +26°C° 0 mm 3 mps 700 mmHg 42%
    10:00 +28°C° 0 mm 3 mps 700 mmHg 38%
    11:00 +29°C° 0 mm 3 mps 700 mmHg 36%
    12:00 +29°C° 0 mm 4 mps 699 mmHg 35%
    13:00 +30°C° 0 mm 4 mps 699 mmHg 33%
    14:00 +32°C° 0.1 mm 4 mps 698 mmHg 33%
    15:00 +32°C° 0.1 mm 4 mps 698 mmHg 33%
    16:00 +32°C° 0.1 mm 4 mps 698 mmHg 33%
    17:00 +30°C° 0.2 mm 3 mps 698 mmHg 34%
    18:00 +29°C° 0.2 mm 2 mps 698 mmHg 36%
    19:00 +28°C° 0.2 mm 2 mps 698 mmHg 38%
    20:00 +28°C° 0.1 mm 2 mps 699 mmHg 40%
    21:00 +27°C° 0.1 mm 2 mps 699 mmHg 41%
    22:00 +27°C° 0.1 mm 2 mps 699 mmHg 43%
    23:00 +26°C° 0 mm 1 mps 698 mmHg 45%
    Show more